EW5004 Weather Reports


Display with metric or nautical units.
time (UTC)temp
F
wind
direction
speed
MPH
gust
MPH
rain 1hr
in
rain 24hr
in
rain mn
in
humidity
%
barometer
mb
20260506233009 46 340 2.0 5.0 0.00 0.00 0.00 55 1013.0
20260506231504 46 348 1.0 6.0 0.00 0.00 0.00 56 1013.1
20260506230104 46 348 2.0 6.0 0.00 0.00 0.00 56 1013.0
20260506224600 47 317 1.0 7.0 0.00 0.00 0.00 56 1013.0
20260506223051 47 22 3.0 10.0 0.00 0.00 0.00 56 1012.8
20260506221548 47 348 2.0 7.0 0.00 0.00 0.00 55 1012.7
20260506220042 48 339 3.0 10.0 0.00 0.00 0.00 54 1012.7
20260506214538 48 5 3.0 10.0 0.00 0.00 0.00 52 1012.3
20260506213037 48 46 5.0 12.0 0.00 0.00 0.00 54 1012.2
20260506211530 49 327 3.0 8.0 0.00 0.00 0.00 54 1011.7
20260506210031 49 340 3.0 7.0 0.00 0.00 0.00 54 1011.8
20260506204521 49 336 4.0 11.0 0.00 0.00 0.00 55 1011.6
20260506203016 50 303 3.0 9.0 0.00 0.00 0.00 54 1011.5
20260506201512 50 327 3.0 9.0 0.00 0.00 0.00 53 1011.4
20260506200007 51 330 5.0 10.0 0.00 0.00 0.00 53 1011.4
20260506194505 51 10 4.0 8.0 0.00 0.00 0.00 51 1011.3
20260506193059 51 19 7.0 11.0 0.00 0.00 0.00 48 1011.4
20260506191555 50 28 5.0 14.0 0.00 0.00 0.00 48 1011.4
20260506190053 51 320 3.0 12.0 0.00 0.00 0.00 43 1011.2
20260506184550 51 22 6.0 14.0 0.00 0.00 0.00 37 1011.5
20260506183041 51 343 3.0 10.0 0.00 0.00 0.00 29 1011.2
20260506181537 50 317 4.0 10.0 0.00 0.00 0.00 16 1011.0
20260506180032 49 321 3.0 11.0 0.00 0.00 0.00 7 1011.3
20260506174527 48 67 4.0 9.0 0.00 0.00 0.00 100 1011.2
20260506173031 48 355 3.0 9.0 0.00 0.00 0.00 100 1010.9
20260506171520 48 336 4.0 11.0 0.00 0.00 0.00 100 1010.8
20260506170014 48 360 5.0 9.0 0.00 0.00 0.00 100 1010.9
20260506164510 48 5 3.0 10.0 0.00 0.00 0.00 100 1010.7
20260506163006 50 12 5.0 12.0 0.00 0.00 0.00 1 1010.6
20260506161501 50 63 4.0 8.0 0.00 0.00 0.00 100 1010.3
20260506160111 48 5 3.0 9.0 0.00 0.00 0.00 100 1010.2
20260506154554 48 306 5.0 10.0 0.00 0.00 0.00 100 1010.2
20260506153056 47 82 1.0 8.0 0.00 0.00 0.00 100 1009.9
20260506151548 47 349 3.0 9.0 0.00 0.00 0.00 100 1009.7
20260506150042 47 336 3.0 7.0 0.00 0.00 0.00 100 1009.4
20260506144539 47 355 2.0 7.0 0.00 0.00 0.00 100 1009.3
20260506143033 47 360 4.0 7.0 0.00 0.00 0.00 100 1009.2
20260506141530 47 22 1.0 5.0 0.00 0.00 0.00 100 1009.1
20260506140022 47 355 1.0 5.0 0.00 0.00 0.00 100 1008.8
20260506134517 47 52 1.0 4.0 0.00 0.00 0.00 100 1008.3
20260506133013 47 57 1.0 4.0 0.00 0.00 0.00 100 1008.5
20260506131508 47 18 1.0 3.0 0.00 0.00 0.00 100 1008.2
20260506130004 47 15 1.0 4.0 0.00 0.00 0.00 100 1008.4
20260506124602 46 53 1.0 6.0 0.00 0.00 0.00 100 1008.1
20260506123056 46 64 2.0 6.0 0.00 0.00 0.00 100 1008.0
20260506121551 46 82 0.0 4.0 0.00 0.00 0.00 100 1007.9
20260506120047 46 17 1.0 3.0 0.00 0.00 0.00 100 1007.9
20260506114542 46 94 3.0 6.0 0.00 0.00 0.00 100 1007.5
20260506113046 46 49 1.0 5.0 0.00 0.00 0.00 100 1007.9
20260506111533 46 36 1.0 7.0 0.00 0.00 0.00 100 1007.5
20260506110030 46 59 3.0 7.0 0.00 0.00 0.00 100 1007.2
20260506104527 46 39 2.0 5.0 0.00 0.00 0.00 100 1007.2
20260506103021 46 44 2.0 7.0 0.00 0.00 0.00 100 1006.9
20260506101527 46 13 4.0 8.0 0.00 0.00 0.00 100 1007.5
20260506100011 46 41 3.0 5.0 0.00 0.00 0.00 100 1007.2
20260506094519 46 5 2.0 5.0 0.00 0.00 0.00 100 1006.7
20260506093002 46 5 1.0 7.0 0.00 0.00 0.00 100 1006.6
20260506091558 46 24 1.0 5.0 0.00 0.00 0.00 100 1006.7
20260506090053 46 5 3.0 8.0 0.00 0.00 0.00 100 1007.0
20260506084612 46 32 3.0 10.0 0.00 0.00 0.00 100 1007.3
20260506083045 46 47 4.0 10.0 0.00 0.00 0.00 100 1007.5
20260506081549 46 5 1.0 7.0 0.00 0.00 0.00 100 1007.0
20260506073039 46 24 1.0 3.0 0.00 0.00 0.00 100 1006.4
20260506071525 46 23 0.0 3.0 0.00 0.00 0.00 100 1006.5
20260506061508 46 53 0.0 2.0 0.00 0.00 0.00 100 1006.8
20260506044636 48 72 1.0 4.0 0.00 0.00 0.00 100 1007.9
20260506043037 48 16 1.0 4.0 0.00 0.00 0.00 100 1008.2
20260506041533 49 355 0.0 3.0 0.00 0.00 0.00 100 1008.1
20260506040029 49 92 2.0 7.0 0.00 0.00 0.00 100 1007.3
20260506034544 49 34 1.0 3.0 0.00 0.00 0.00 100 1007.4
20260506033019 49 9 1.0 3.0 0.00 0.00 0.00 100 1007.7
20260506031516 49 349 1.0 3.0 0.00 0.00 0.00 100 1007.9
20260506030010 49 355 1.0 3.0 0.00 0.00 0.00 100 1007.9
20260506024506 49 158 0.0 2.0 0.00 0.00 0.00 100 1007.6
20260506023002 49 160 0.0 2.0 0.00 0.00 0.00 100 1007.8
20260506021558 49 159 0.0 1.0 0.00 0.00 0.00 100 1007.5
20260506020053 49 159 0.0 1.0 0.00 0.00 0.00 100 1007.2
20260506014548 49 159 0.0 1.0 0.00 0.00 0.00 100 1007.5
20260506013044 49 159 0.0 2.0 0.00 0.00 0.00 100 1007.3
20260506011540 49 161 0.0 3.0 0.00 0.00 0.00 100 1007.3
20260506010043 49 235 1.0 3.0 0.00 0.00 0.00 100 1007.7
20260506004551 48 277 0.0 2.0 0.00 0.00 0.00 100 1007.7
20260506003038 49 319 0.0 4.0 0.00 0.00 0.00 100 1007.9
20260506001523 49 76 0.0 2.0 0.00 0.00 0.00 100 1007.5
20260506000019 49 11 0.0 4.0 0.00 0.00 0.00 100 1007.5
20260505234524 49 314 0.0 2.0 0.00 0.00 0.00 100 1008.0